Location: Newark
(54.4333°N, 18.5500°E)
Time: 01:52:34
(UTC+00:00)

Envisat - Pass Details

Date: 14 December 2019
Orbit: 764 x 766 km, 98.1° (Epoch: 22 January)

Event Time Altitude Azimuth Distance (km) Brightness Sun altitude
Rises 03:49:17 0° 30° (NNE) 3,247 6.6 -26.0°
Reaches altitude 10° 03:54:04 10° 70° (ENE) 2,312 6.3 -25.3°
Maximum altitude 03:54:57 10° 80° (E) 2,282 6.4 -25.2°
Drops below altitude 10° 03:55:49 10° 90° (E) 2,308 6.5 -25.0°
Sets 04:00:33 0° 131° (SE) 3,226 7.1 -24.3°
